OPS 7898 (P/L 2)

Satellite information

Favourite Embed

Satellite Type and Status

PAYLOADIN ORBIT

Key statistics

Satellite OPS 7898 (P/L 2) at a glance.

Uptime

19505

Days in orbit

Revolutions

≈ 13.7

Per day

Orbit

LEO

Low Earth Orbit

Inclination

70.0

Latest

Satellite identification and parameters

Extended collection of information and parameters for OPS 7898 (P/L 2).

Object identification

Identified? True

Debris? False

Object name: OPS 7898 (P/L 2)

International designator: 1971-110C

Object number (NORAD): 5680

Object ID (CCSDS): 5680

Country: UNITED STATES OF AMERICA (US)

Current information (Y/N): Y

RCS size: MEDIUM

Orbital parameters

Period: 104.749 minutes

Inclination: 69.987 deg

SMA: 7360.832 km

Apoapsis: 989.874 km

Periapsis: 975.521 km

RAAN: 119.1373 deg

Eccentricy: 0.000975

Argument of periapsis: 305.817 deg

Mean anomaly: 54.2018 deg

Mean motion: 13.74714043 rev/day

Mean motion (dot): 0.00000015 rev/day2

B* drag term: 0.000068318 1/REarth

Two-line elements (TLE)

Creation date: May 8, 2025, 3:01 a.m.

Reference frame: TEME

Reference center: EARTH

Epoch: May 7, 2025, 11:19 p.m. UTC

TLE line 0: 0 OPS 7898 (P/L 2)

TLE line 1: 1 05680U 71110C 25127.97181502 .00000015 00000-0 68318-4 0 9995

TLE line 2: 2 05680 69.9870 119.1373 0009750 305.8170 54.2018 13.74714043292524

Live tracking on map

Real-time ground track for satellite OPS 7898 (P/L 2).

In-orbit conjunctions

There are no conjunctions computed for OPS 7898 (P/L 2), at the moment. Check back to stay up to date, as we update our databases every day.

Go to all conjunctions

Associated space launch

Poppy was the follow-on ELINT system, which succeeded the Grab ELINT satellite system.

OPS 7898 (P/L 2) was lifted into orbit during the mission ‘Thorad SLV-2G Agena D | Poppy 9A,B,C,D’, on board a Thorad SLV-2G Agena D space rocket.

The launch took place on Dec. 14, 1971, 12:13 p.m. from Space Launch Complex 1W.

For more information about the launch, click the button.

Launch to space Thorad SLV-2G Agena D | Poppy 9A,B,C,D
Thorad SLV-2G Agena D | Poppy 9A,B,C,D

Agency: N/A

Status: Launch Successful

Launch date: Dec. 14, 1971, 12:13 p.m. UTC

Rocket: Thorad SLV-2G Agena D

Launch pad: Space Launch Complex 1W

Location: Vandenberg SFB, CA, USA

...

Latest news about this satellite

There are no fresh news available about this satellite. Check back as we update our databases every day.


Newsletter sign-up

Weekly statistics, charts and insights to help you stay on top of the space industry.